Miscellaneous Local Product
Issued by NWS Hastings, NE

Home | Current Version | Previous Version | Text Only | Print | Product List | Glossary Off
Versions: 1 2 3 4 5 6 7 8 9 10 11 12 13 14 15 16 17 18 19 20 21 22 23 24 25 26 27 28 29 30 31 32 33 34 35 36 37 38 39 40 41 42 43 44 45 46 47 48 49 50

000
AXUS43 KGID 280902
MISGRI

GID CWA HOURLY WEATHER ROUNDUP
NATIONAL WEATHER SERVICE HASTINGS NE
300 AM CST FRI NOV 28 2014

NOTE: "FAIR" INDICATES FEW OR NO CLOUDS BELOW 12,000 FEET WITH NO
SIGNIFICANT WEATHER AND/OR OBSTRUCTIONS TO VISIBILITY.

...SOUTH CENTRAL NEBRASKA...

CITY           SKY/WX    TMP DP  RH WIND       PRES   REMARKS
GRAND ISLAND   CLEAR     26  19  74 SW9       29.95R WCI  17
HASTINGS       CLEAR     27  18  69 SW8       29.93S WCI  19
KEARNEY        CLEAR     27  19  74 CALM      29.93F
ORD            CLEAR     16  13  88 CALM      29.90R
YORK           CLEAR     27  19  74 S10       29.95S WCI  17
AURORA         CLEAR     28  19  70 S8        29.93F WCI  20
LEXINGTON      CLEAR     23  19  83 W6        29.92F WCI  16
HOLDREGE       CLEAR     30  22  71 SW5       29.93S WCI  25
HEBRON         CLEAR     31  19  63 S6        29.97F WCI  25

...NEBRASKA PANHANDLE...

CITY           SKY/WX    TMP DP  RH WIND       PRES   REMARKS
CHADRON        NOT AVBL
ALLIANCE       CLEAR     26  22  84 SW8       29.89F WCI  18
SCOTTSBLUFF    CLEAR     32  25  75 E7        29.91F WCI  26
SIDNEY         NOT AVBL

...WESTERN AND NORTH CENTRAL NEBRASKA...

CITY           SKY/WX    TMP DP  RH WIND       PRES   REMARKS
VALENTINE      CLEAR     33  28  81 W9        29.84F WCI  25
AINSWORTH      PTCLDY    35  28  75 SW7       29.85S WCI  29
ONEILL         MOCLDY    28  22  76 SW7       29.87S WCI  21
BROKEN BOW     CLEAR     37  24  59 W5        29.89F WCI  33
IMPERIAL       CLEAR     38  25  59 W12       29.96S WCI  30
NORTH PLATTE   PTCLDY    22  19  89 W5        29.93S WCI  16
MCCOOK         NOT AVBL

...EASTERN NEBRASKA...

CITY           SKY/WX    TMP DP  RH WIND       PRES   REMARKS
NORFOLK        PTCLDY    27  19  72 S7        29.92F WCI  19
SO SIOUX CITY  CLEAR     23  18  81 SE9       29.97F WCI  13
TEKAMAH        CLEAR     25  19  78 S9        29.99F WCI  15
COLUMBUS       PTCLDY    27  18  69 S6        29.96F WCI  20
ALBION         PTCLDY    24  17  77 SE5       29.91F WCI  18
OMAHA EPPLEY   CLEAR     27  21  78 S12       30.03F WCI  17
OFFUTT AFB     CLEAR     24  20  85 SE7       30.02F WCI  16
MILLARD        CLEAR     29  22  74 SE12      30.01F WCI  20
LINCOLN        CLEAR     26  18  71 S7        30.00F WCI  18
NEBRASKA CITY  CLEAR     28  20  71 S13       30.04F WCI  18
BEATRICE       CLEAR     32  21  65 S12       29.99F WCI  23
FALLS CITY     CLEAR     28  22  78 SE7       30.06F WCI  21

...NORTHERN KANSAS...

CITY           SKY/WX    TMP DP  RH WIND       PRES   REMARKS
GOODLAND       PTCLDY    36  23  59 SW10      30.00F WCI  28
HILL CITY      CLEAR     32  25  75 SW9       29.97R WCI  24
NORTON         SUNNY     30  21  69 W8        29.94S WCI  23
PHILLIPSBURG   CLEAR     25  21  86 NW6       29.96S WCI  18
SMITH CENTER   CLEAR     27  19  74 SE5       29.96S WCI  21
BELOIT         CLEAR     28  19  69 SE6       29.97F WCI  22
HAYS           CLEAR     36  21  55 CALM      29.98S
RUSSELL        CLEAR     33  25  72 S10       29.97S WCI  25
CONCORDIA      PTCLDY    34  24  67 S10       29.98F WCI  26
SALINA         CLEAR     40  26  57 S9        30.03S WCI  34
TOPEKA         CLEAR     36  23  59 S8        30.11F WCI  30



USA.gov is the U.S. government's official web portal to all federal, state and local government web resources and services.